METEOR 2-8 DEB

Satellite information

Favourite Embed

Satellite Type and Status

DEBRISIN ORBIT

Key statistics

Satellite METEOR 2-8 DEB at a glance.

Uptime

15970

Days in orbit

Revolutions

≈ 14.2

Per day

Orbit

LEO

Low Earth Orbit

Inclination

82.5

Latest

Satellite identification and parameters

Extended collection of information and parameters for METEOR 2-8 DEB.

Object identification

Identified? True

Debris? True

Object name: METEOR 2-8 DEB

International designator: 1982-025K

Object number (NORAD): 36325

Object ID (CCSDS): 36325

Country: COMMONWEALTH OF INDEPENDENT STATES (CIS)

Current information (Y/N): Y

RCS size: SMALL

Orbital parameters

Period: 101.459 minutes

Inclination: 82.518 deg

SMA: 7205.868 km

Apoapsis: 841.709 km

Periapsis: 813.757 km

RAAN: 27.2725 deg

Eccentricy: 0.00193957

Argument of periapsis: 141.0106 deg

Mean anomaly: 219.2477 deg

Mean motion: 14.19297117 rev/day

Mean motion (dot): 0.00003946 rev/day2

B* drag term: 0.0018699005 1/REarth

Two-line elements (TLE)

Creation date: Dec. 11, 2025, 7:14 p.m.

Reference frame: TEME

Reference center: EARTH

Epoch: Dec. 11, 2025, 8:31 a.m. UTC

TLE line 0: 0 METEOR 2-8 DEB

TLE line 1: 1 36325U 82025K 25345.35527728 .00003946 00000-0 18699-2 0 9991

TLE line 2: 2 36325 82.5180 27.2725 0019396 141.0106 219.2477 14.19297117625558

Live tracking on map

Real-time ground track for satellite METEOR 2-8 DEB.

In-orbit conjunctions

A list of the most updated potential collisions computed for object METEOR 2-8 DEB.

Target Orbit TCA Probability of collision Miss distance Type
COSMOS 2251 DEB LEO 2025-10-18 21:50:12 0.0001125163 85.0 (m) DEBRIS
TIROS N SSO 2025-09-30 19:11:49 0.0001896556 93.0 (m) PAYLOAD
CZ-6A DEB SSO 2025-03-09 19:00:52 0.0001190367 162.0 (m) DEBRIS
COSMOS 2360 LEO 2024-09-14 23:02:53 0.0003355977 545.0 (m) PAYLOAD

Associated space launch

Second generation soviet meteorological satellite

METEOR 2-8 DEB was lifted into orbit during the mission ‘Tsiklon-3 | Meteor-2 8’, on board a Tsiklon-3 space rocket.

The launch took place on March 25, 1982, 9:50 a.m. from 32/1.

For more information about the launch, click the button.

Launch to space Tsiklon-3 | Meteor-2 8
Tsiklon-3 | Meteor-2 8

Agency: N/A

Status: Launch Successful

Launch date: March 25, 1982, 9:50 a.m. UTC

Rocket: Tsiklon-3

Launch pad: 32/1

Location: Plesetsk Cosmodrome, Russian Federation

...

Latest news about this satellite

There are no fresh news available about this satellite. Check back as we update our databases every day.


Newsletter sign-up

Weekly statistics, charts and insights to help you stay on top of the space industry.